Temperature
5 5 4 4 4 4 4 5 5 5 5 5 5 5 5 6 6 6 6 6 6 6 7 7 7 7 7 8 8 8 8 8 8 8 8 8 8 8 8 8 8 7 7
4 4 4 4 4 4 4 4 4 4 4 4 5 5 5 5 6 6 6 6 6 6 7 7 7 7 7 7 7 8 8 8 8 8 8 8 8 8 8 7 7 7 7
4 4 4 4 4 4 4 4 4 4 4 4 4 5 5 5 5 6 6 6 6 6 6 7 7 7 7 7 7 7 8 8 8 8 8 8 8 7 7 7 7 6 6
3 3 3 3 3 3 3 3 3 4 4 4 4 5 5 5 5 5 5 5 6 6 6 6 7 7 7 7 7 7 8 8 8 8 8 7 7 7 7 7 6 6 6
3 3 3 3 3 3 3 3 3 3 3 4 4 4 5 5 5 5 5 5 6 6 6 6 7 7 7 7 7 7 8 8 8 8 7 7 7 7 7 7 6 6 5
2 3 2 2 2 2 2 2 3 3 3 3 4 4 5 5 5 5 5 5 5 6 6 6 6 6 7 7 7 7 8 8 7 8 8 7 7 7 7 6 6 5 5
2 2 2 2 2 2 2 2 2 3 3 3 4 4 5 5 5 5 5 5 5 5 6 6 6 6 6 6 7 7 7 7 8 8 8 7 7 7 7 6 6 6 5
1 1 2 2 2 2 2 2 2 2 3 3 3 4 4 5 5 5 5 5 5 5 6 6 6 6 6 6 7 7 7 7 7 7 7 7 7 7 7 6 6 6 5
1 1 1 1 1 1 2 2 2 2 3 3 3 4 4 5 5 5 5 5 5 5 5 5 6 6 6 6 6 6 7 7 7 7 7 7 7 7 6 6 5 5 4
1 1 1 1 1 1 1 1 2 2 2 3 3 4 4 4 5 5 5 5 5 5 5 5 5 6 6 6 6 6 6 6 6 6 6 6 6 6 6 5 5 5 5
0 0 0 0 0 1 1 1 1 2 2 2 3 4 4 4 4 5 5 5 5 5 5 5 5 6 6 6 6 6 6 6 6 6 6 6 5 5 5 5 5 5 5
-0 -0 -0 0 0 1 1 1 1 1 2 2 2 3 3 4 4 4 5 5 5 5 5 5 5 5 6 6 6 6 6 6 6 6 5 5 5 5 5 4 4 4 4
-1 -1 -1 -0 -0 0 0 0 1 1 1 1 2 2 3 3 3 4 4 4 4 4 4 5 5 5 5 5 5 5 6 5 5 5 5 5 5 4 4 4 3 3 3
-1 -1 -1 -1 -1 -0 -0 0 0 0 1 1 1 2 2 3 3 3 4 4 4 4 4 4 5 5 5 5 5 5 5 5 5 5 5 4 4 4 3 3 3 3 2
-2 -2 -2 -1 -1 -1 -0 -0 -0 -0 0 1 1 2 2 2 3 3 3 3 3 4 4 4 4 4 4 4 4 4 4 4 4 4 4 4 3 3 3 3 3 2 2
-3 -2 -2 -2 -2 -2 -1 -1 -0 -0 0 1 1 1 2 2 2 3 3 3 3 4 4 4 4 4 4 4 4 4 4 4 4 4 4 3 3 3 3 2 2 1 1
-3 -3 -3 -3 -2 -2 -2 -1 -1 -0 0 1 1 1 2 2 2 3 3 3 3 3 4 3 3 3 3 4 4 4 4 3 4 4 3 3 3 3 2 2 1 1 1
-4 -3 -3 -3 -3 -2 -2 -2 -2 -1 -1 0 1 1 1 2 2 2 3 2 3 3 3 3 3 3 3 3 3 3 3 3 3 3 3 3 3 2 2 1 1 1 1
-4 -4 -4 -3 -3 -3 -3 -2 -2 -2 -1 -1 -0 0 1 1 2 2 2 2 2 3 3 3 3 3 3 3 3 3 3 3 3 3 3 3 2 2 2 1 1 1 1
-4 -4 -4 -4 -3 -3 -3 -3 -3 -2 -2 -1 -1 -0 0 1 1 1 1 2 2 2 3 3 3 3 3 3 3 3 3 3 3 3 3 2 2 2 1 1 1 0 0
-5 -4 -4 -4 -4 -3 -3 -3 -3 -3 -2 -2 -1 -1 -0 0 0 1 1 1 2 2 2 2 3 3 3 3 3 3 3 3 3 2 2 2 2 1 1 1 0 0 -0
-5 -5 -4 -4 -4 -4 -3 -3 -3 -3 -2 -2 -2 -1 -1 -0 0 0 1 1 1 2 2 2 3 3 3 3 3 3 3 3 2 2 2 2 2 1 1 1 0 -0 -0
-6 -5 -5 -5 -4 -4 -4 -4 -3 -3 -3 -2 -2 -1 -1 -0 -0 0 1 1 1 2 2 2 2 2 2 3 3 3 3 3 3 3 3 2 2 1 1 1 0 -0 -0
-6 -6 -5 -5 -5 -4 -4 -4 -4 -3 -3 -3 -2 -2 -1 -1 -0 0 1 1 1 2 2 2 2 2 2 2 2 2 3 3 3 3 2 2 2 1 1 0 -0 -0 -1
-6 -6 -6 -5 -5 -5 -4 -4 -4 -4 -4 -3 -3 -2 -1 -1 -0 0 1 1 1 1 2 2 2 2 2 2 2 2 2 2 2 2 2 2 2 1 1 0 -0 -0 -1
-6 -6 -6 -6 -5 -5 -5 -5 -4 -4 -4 -3 -3 -2 -2 -1 -1 -0 0 1 1 1 1 1 2 2 2 2 2 2 2 2 2 2 2 2 1 1 0 0 -0 -0 -1
Wind_Speed
12 11 11 12 12 12 13 13 12 12 12 13 13 13 13 13 13 13 13 13 14 13 12 13 13 12 10 9 9 9 8 8 7 5 4 6 9 9 8 8 9 9 8
12 12 12 12 12 12 13 13 12 13 12 13 13 13 14 13 13 14 14 13 14 14 14 14 13 11 12 10 9 10 9 8 7 7 5 6 8 9 8 8 7 6 7
12 12 12 12 12 13 13 13 12 12 12 13 13 13 14 14 14 14 13 13 14 13 13 14 14 13 12 10 11 9 8 7 7 7 6 5 5 7 8 6 6 5 5
12 12 12 12 13 13 13 12 12 12 12 12 12 13 14 13 13 13 12 12 12 12 12 14 14 14 13 13 11 10 8 8 8 7 6 6 6 6 7 6 6 5 4
12 12 12 12 13 12 12 12 11 11 11 11 12 12 12 11 11 12 11 10 11 11 11 12 13 13 13 12 10 10 9 8 7 8 7 6 6 7 7 6 6 5 4
11 11 12 12 12 11 11 11 11 11 10 11 11 12 12 10 11 12 10 10 11 11 11 11 10 11 11 11 12 11 11 11 10 9 7 9 9 9 8 8 7 6 4
11 11 12 11 11 11 11 11 11 11 10 11 11 12 12 11 11 12 10 10 10 10 10 9 8 9 10 9 9 9 9 10 12 11 10 10 10 10 10 10 9 7 4
11 11 11 11 11 11 11 11 11 10 10 10 11 10 10 10 12 12 10 10 9 10 10 10 10 9 10 9 9 7 7 6 8 7 8 8 8 10 10 9 9 7 5
11 12 12 12 12 11 12 11 10 9 10 9 9 9 9 9 12 12 10 8 7 8 8 9 10 10 11 11 9 8 7 4 4 7 7 7 9 11 11 9 9 7 4
12 12 12 12 12 12 12 11 10 9 9 8 8 8 8 9 10 11 11 7 7 6 6 7 10 11 12 11 10 10 10 7 7 7 7 8 8 10 10 7 8 7 5
12 12 12 12 11 11 11 10 9 8 8 7 7 6 6 6 9 11 11 7 7 7 6 6 6 11 11 10 9 9 11 9 8 8 7 6 6 6 5 4 3 4 5
11 12 12 12 11 10 10 10 9 8 8 6 5 4 3 4 6 8 9 9 7 7 7 6 6 10 9 9 8 10 13 10 7 7 7 6 6 5 5 6 6 6 5
12 12 12 12 11 10 10 9 8 7 6 5 4 4 3 3 3 6 7 8 7 5 5 7 8 10 8 7 10 13 11 8 8 8 7 6 5 7 7 7 8 9 9
12 12 11 11 11 10 8 7 6 7 7 6 5 4 3 2 3 3 4 5 5 5 5 7 9 9 8 8 8 8 6 6 7 7 7 6 6 7 7 7 7 7 6
12 11 10 9 9 9 9 7 8 8 8 7 5 4 4 4 3 3 4 4 4 5 5 4 4 5 5 5 5 5 5 6 7 7 8 8 8 8 7 6 6 5 5
10 10 9 8 8 7 8 8 8 8 9 9 7 6 4 4 3 3 4 5 7 8 6 5 5 6 6 6 7 6 5 6 7 8 8 8 9 9 8 7 6 6 7
10 10 8 8 8 7 7 6 7 7 6 6 4 4 4 4 3 3 4 5 7 7 5 6 6 6 6 6 6 7 6 6 7 8 8 9 9 9 9 8 7 7 7
9 9 8 7 7 6 6 6 5 6 6 4 2 2 3 3 4 4 5 5 4 5 5 6 6 6 6 6 7 7 7 6 7 8 8 9 9 10 9 9 8 8 8
8 7 6 6 6 6 5 5 5 5 5 5 2 1 2 2 3 4 4 4 4 4 4 5 6 6 6 6 7 7 7 7 8 8 9 10 9 10 9 9 8 10 8
7 9 8 6 6 5 5 4 4 4 4 4 2 1 1 2 2 2 2 2 3 4 4 4 5 6 6 7 8 8 8 7 8 8 9 9 9 9 10 10 9 9 7
6 7 8 6 5 5 5 4 4 4 4 3 3 2 2 2 2 2 2 2 2 3 4 4 5 6 6 7 8 9 9 8 8 9 9 10 10 9 9 9 9 8 8
6 6 5 5 5 4 4 4 4 4 4 3 3 2 1 1 1 2 1 1 2 2 3 4 5 5 6 7 9 9 9 9 9 9 9 10 10 10 10 9 9 8 9
6 6 6 5 4 5 5 4 4 3 3 3 3 2 1 1 1 1 1 1 2 2 2 3 5 4 4 5 6 8 9 9 10 11 11 10 10 10 10 10 11 11 9
6 6 6 5 4 4 4 4 3 3 3 3 3 2 2 1 1 1 1 2 2 2 3 3 4 6 7 7 6 7 8 9 10 11 12 12 11 10 10 10 10 11 10
6 6 5 5 4 4 4 4 3 3 3 3 2 2 2 2 1 1 2 2 3 3 3 4 4 6 7 9 9 9 13 14 14 13 11 10 12 11 11 11 10 11 10
6 6 5 4 4 4 4 3 3 3 3 3 2 2 2 2 1 2 2 3 4 4 4 4 6 7 9 9 12 15 17 17 17 16 13 11 12 11 11 10 12 11 11
Wind_Direction
285 283 282 280 279 276 275 269 269 270 261 253 250 248 245 240 235 229 226 224 224 223 220 217 216 212 207 206 205 211 212 208 207 205 200 181 180 180 177 182 181 184 183
288 285 283 283 282 279 278 276 273 273 266 253 250 249 244 238 232 229 226 223 222 221 217 213 213 209 207 204 205 209 205 203 200 195 192 182 185 181 175 175 177 179 182
291 288 283 283 284 282 280 280 275 273 271 259 250 250 244 237 232 228 223 223 222 221 217 212 209 204 205 204 205 205 198 196 193 185 188 177 173 169 169 169 172 174 176
293 288 286 286 286 285 283 284 277 273 270 264 254 251 242 233 229 224 219 221 224 222 219 213 208 204 203 204 204 200 191 188 185 179 179 172 170 165 169 174 177 177 174
293 289 289 290 288 287 286 285 279 273 269 266 261 252 240 230 223 216 216 219 222 220 219 214 209 204 205 206 201 194 190 190 184 180 180 175 176 172 180 176 177 164 169
297 293 293 293 292 290 289 287 281 274 271 269 264 251 237 226 214 212 216 221 219 216 214 211 205 198 200 200 194 194 195 195 191 187 189 187 192 185 173 170 166 167 179
304 300 297 297 296 296 293 289 282 275 272 269 267 253 235 222 208 210 217 221 215 213 209 204 201 197 194 196 185 186 199 198 194 191 192 196 192 185 174 173 176 173 166
305 306 306 302 300 300 297 290 287 278 271 268 263 250 238 219 204 206 212 213 211 210 204 200 196 198 198 188 184 188 192 198 195 192 194 192 185 176 175 172 163 136 109
308 308 308 307 304 300 297 294 293 287 279 272 263 251 239 221 200 200 201 205 204 203 200 198 194 196 187 175 179 179 173 168 132 136 140 142 147 152 153 144 147 147 145
305 305 306 305 304 299 297 297 296 293 283 279 266 250 236 224 201 193 194 194 195 193 194 196 194 191 183 178 181 178 176 171 151 130 123 117 129 140 146 158 163 162 146
303 302 303 304 305 302 301 298 298 298 291 282 272 249 226 219 201 193 191 190 188 188 191 195 191 172 176 179 180 184 174 162 151 143 138 135 130 132 131 119 127 154 149
302 303 304 305 306 304 304 302 300 298 289 282 270 253 225 213 202 191 188 189 186 187 192 191 180 167 170 172 174 162 152 149 151 146 146 149 146 140 129 114 100 85 79
301 302 304 305 305 304 302 301 303 299 284 277 266 249 233 213 191 176 178 178 178 185 184 169 166 161 157 160 156 153 152 156 155 153 156 156 148 139 128 115 102 94 81
299 301 302 302 303 304 301 297 299 299 289 280 271 254 233 212 193 175 170 161 153 156 148 138 139 142 149 153 155 155 160 161 158 156 151 144 137 137 136 134 129 121 105
297 298 299 297 299 300 297 292 290 285 282 275 266 256 230 224 217 197 192 186 178 165 151 145 149 153 158 159 157 155 151 150 148 147 147 146 145 142 138 136 132 127 125
293 295 295 296 296 296 299 300 291 283 290 279 267 259 252 226 209 204 190 185 172 164 157 164 168 169 171 169 163 157 153 154 152 151 151 152 151 146 139 134 133 132 131
287 288 290 290 290 292 296 302 309 315 312 290 271 253 220 202 192 181 171 171 173 169 168 174 174 173 171 169 167 163 159 155 153 152 152 151 147 144 143 143 142 136 131
290 289 289 288 287 288 293 294 294 301 311 310 292 207 184 185 178 166 158 153 169 175 175 176 175 173 170 171 164 156 151 149 151 150 148 147 147 147 147 147 147 143 138
291 290 290 287 286 285 286 287 288 291 292 297 283 176 152 154 154 160 164 168 174 178 175 175 173 172 169 165 159 155 154 154 154 149 148 148 149 148 148 146 144 141 136
288 289 289 286 286 285 283 283 284 285 290 290 274 219 158 137 144 153 152 158 168 174 170 171 172 169 164 161 157 156 154 154 152 149 149 149 150 149 147 146 146 145 139
290 290 287 281 279 281 283 283 282 281 283 283 281 269 220 204 198 193 177 165 177 179 171 167 163 161 164 161 158 158 156 156 153 149 150 149 148 146 145 145 142 138 133
283 282 282 277 275 277 280 280 279 279 278 276 285 287 243 223 206 193 180 184 189 183 169 161 158 161 165 164 161 160 159 156 154 150 148 147 145 144 144 142 139 137 136
278 277 276 274 271 271 272 269 269 269 269 266 268 270 247 235 216 202 189 186 173 163 153 148 149 151 151 150 156 162 163 162 159 154 149 146 146 146 145 143 142 141 142
272 269 266 263 263 263 263 266 266 263 262 263 266 270 257 249 229 206 197 178 159 144 137 141 146 147 146 145 146 146 145 145 146 148 145 145 145 144 143 142 142 143 142
269 263 259 256 256 259 261 264 263 254 250 254 255 258 251 234 222 194 170 151 139 133 131 136 139 141 143 142 141 140 138 137 138 139 139 140 139 139 140 139 140 139 138
266 261 255 252 249 252 255 253 249 246 244 248 248 248 244 219 201 178 156 142 137 134 131 131 133 136 136 135 135 136 136 135 134 134 135 136 137 139 139 138 137 137 137
Height
1399 1396 1394 1391 1389 1387 1384 1382 1379 1377 1375 1375 1374 1375 1376 1377 1378 1380 1382 1384 1387 1390 1393 1396 1399 1403 1406 1410 1413 1416 1420 1423 1424 1427 1431 1434 1437 1440 1443 1446 1448 1449 1450
1393 1390 1387 1384 1382 1380 1377 1374 1372 1370 1368 1367 1367 1367 1368 1369 1371 1373 1375 1377 1380 1383 1386 1389 1393 1397 1400 1403 1407 1410 1414 1417 1420 1422 1426 1429 1432 1435 1438 1441 1443 1444 1445
1387 1384 1381 1378 1376 1373 1369 1366 1364 1362 1360 1358 1359 1359 1360 1362 1364 1366 1368 1371 1373 1376 1379 1382 1386 1390 1393 1397 1401 1405 1408 1412 1415 1417 1421 1424 1427 1430 1433 1436 1438 1439 1441
1381 1377 1375 1372 1369 1366 1363 1360 1357 1355 1353 1351 1351 1351 1352 1354 1356 1359 1362 1364 1367 1369 1373 1376 1380 1383 1387 1391 1395 1399 1402 1406 1410 1413 1416 1419 1421 1425 1428 1430 1433 1435 1437
1375 1371 1368 1365 1363 1359 1356 1353 1351 1348 1346 1345 1344 1345 1345 1347 1349 1352 1355 1357 1360 1363 1367 1370 1374 1377 1382 1386 1390 1393 1397 1401 1404 1407 1411 1414 1416 1419 1422 1425 1428 1430 1432
1369 1366 1363 1359 1356 1353 1350 1347 1344 1342 1340 1338 1337 1338 1339 1340 1343 1346 1349 1352 1354 1357 1360 1364 1368 1372 1376 1381 1385 1389 1393 1396 1399 1402 1405 1408 1411 1414 1417 1420 1423 1425 1427
1364 1361 1358 1354 1350 1347 1344 1341 1338 1336 1334 1332 1331 1331 1332 1335 1338 1341 1343 1346 1349 1352 1355 1359 1362 1367 1372 1376 1380 1384 1388 1391 1395 1398 1400 1403 1406 1409 1412 1415 1418 1420 1423
1360 1357 1353 1350 1345 1342 1339 1335 1332 1330 1327 1326 1325 1326 1327 1329 1333 1335 1338 1342 1345 1348 1350 1353 1357 1362 1367 1371 1375 1379 1383 1386 1390 1394 1397 1400 1403 1406 1408 1411 1414 1417 1419
1357 1353 1349 1345 1341 1337 1334 1330 1327 1324 1322 1321 1320 1321 1322 1324 1327 1331 1334 1337 1340 1343 1346 1350 1353 1358 1362 1366 1371 1374 1377 1381 1385 1389 1392 1395 1398 1401 1404 1407 1409 1412 1414
1353 1349 1345 1341 1337 1333 1330 1326 1323 1321 1318 1317 1316 1317 1318 1320 1323 1326 1330 1333 1336 1339 1342 1346 1350 1354 1358 1362 1366 1369 1372 1375 1379 1383 1387 1391 1394 1397 1400 1403 1405 1408 1410
1349 1345 1341 1337 1334 1330 1327 1323 1320 1317 1315 1314 1312 1313 1314 1317 1319 1323 1326 1329 1332 1335 1339 1342 1346 1350 1355 1358 1362 1365 1368 1372 1376 1380 1383 1387 1391 1394 1396 1399 1402 1405 1407
1344 1341 1337 1333 1330 1327 1324 1321 1318 1315 1313 1311 1311 1311 1312 1314 1316 1319 1323 1326 1329 1332 1335 1339 1343 1347 1351 1355 1358 1362 1365 1369 1372 1376 1380 1384 1387 1390 1393 1396 1399 1402 1405
1339 1336 1333 1329 1326 1323 1321 1318 1315 1313 1311 1310 1309 1309 1310 1311 1314 1317 1320 1323 1326 1329 1333 1336 1340 1344 1348 1351 1355 1358 1361 1365 1369 1373 1377 1380 1384 1387 1390 1394 1397 1400 1402
1335 1332 1328 1325 1322 1320 1317 1315 1312 1310 1309 1308 1308 1307 1308 1310 1311 1314 1317 1321 1324 1327 1331 1334 1338 1341 1345 1348 1351 1354 1358 1362 1366 1370 1373 1377 1381 1385 1388 1391 1394 1397 1400
1330 1327 1324 1321 1318 1316 1314 1312 1310 1308 1307 1306 1306 1307 1307 1307 1310 1312 1314 1318 1321 1324 1327 1330 1334 1338 1341 1344 1348 1351 1355 1359 1363 1367 1370 1374 1378 1382 1386 1389 1392 1395 1398
1325 1322 1320 1317 1315 1312 1310 1308 1306 1305 1304 1304 1304 1305 1305 1307 1308 1311 1313 1316 1319 1322 1325 1327 1331 1334 1337 1341 1344 1348 1352 1356 1360 1363 1367 1371 1375 1379 1383 1387 1390 1393 1396
1321 1318 1316 1314 1312 1310 1308 1305 1303 1302 1301 1301 1302 1302 1303 1305 1306 1309 1311 1314 1317 1320 1322 1325 1328 1331 1335 1338 1342 1346 1350 1354 1357 1361 1365 1369 1373 1377 1381 1385 1388 1392 1395
1316 1314 1312 1310 1308 1306 1305 1303 1302 1300 1298 1298 1299 1300 1301 1303 1305 1307 1310 1312 1314 1318 1320 1322 1325 1329 1332 1336 1340 1344 1348 1351 1355 1359 1363 1367 1371 1375 1379 1383 1387 1390 1394
1312 1310 1308 1307 1305 1304 1302 1301 1300 1298 1297 1296 1297 1298 1300 1301 1303 1306 1308 1310 1312 1314 1317 1320 1323 1326 1330 1334 1338 1342 1346 1349 1353 1357 1361 1365 1370 1374 1378 1382 1386 1390 1393
1308 1306 1305 1304 1302 1301 1299 1298 1297 1296 1295 1295 1296 1296 1298 1300 1301 1304 1306 1308 1310 1313 1315 1318 1321 1325 1328 1332 1336 1340 1344 1347 1351 1355 1359 1364 1368 1373 1376 1380 1384 1388 1392
1304 1302 1301 1300 1299 1298 1297 1296 1295 1295 1294 1294 1295 1296 1297 1299 1300 1302 1305 1307 1309 1311 1313 1316 1319 1323 1327 1331 1335 1339 1342 1345 1349 1353 1358 1362 1367 1371 1376 1380 1384 1388 1391
1300 1299 1298 1297 1296 1296 1295 1294 1293 1293 1292 1293 1293 1295 1296 1298 1299 1301 1303 1305 1308 1310 1312 1315 1318 1322 1325 1329 1333 1337 1340 1344 1348 1352 1357 1361 1366 1370 1375 1379 1383 1387 1391
1297 1296 1295 1294 1293 1293 1293 1292 1292 1291 1291 1292 1292 1293 1295 1296 1298 1300 1302 1304 1307 1309 1312 1315 1318 1321 1324 1328 1332 1336 1339 1343 1347 1351 1355 1360 1365 1369 1374 1378 1382 1386 1390
1293 1292 1292 1291 1290 1290 1289 1289 1289 1289 1290 1290 1291 1292 1294 1296 1297 1299 1301 1303 1306 1308 1311 1314 1317 1320 1324 1327 1331 1335 1339 1343 1347 1352 1356 1360 1364 1369 1373 1378 1382 1386 1390
1289 1288 1288 1288 1287 1287 1287 1286 1287 1287 1288 1289 1290 1291 1293 1295 1297 1298 1300 1303 1305 1308 1311 1314 1317 1320 1324 1328 1331 1335 1339 1343 1348 1352 1356 1361 1365 1369 1373 1378 1382 1386 1390
1284 1284 1284 1284 1284 1284 1284 1284 1285 1286 1287 1288 1289 1290 1292 1294 1296 1298 1300 1302 1305 1307 1310 1314 1317 1321 1325 1328 1332 1336 1340 1344 1348 1353 1357 1361 1365 1369 1374 1378 1382 1386 1390